Address 0xd281cf7a8194c59790a17fa5247b7b46b95ce1b0 5

Txn Hash
Block
From
To
Value [Txn Fee]
0x4e26d1c9629bbf77fe3082fb63130725a0ec297125307264e97feff238c728aa108425582021-07-23 12:31:4312 days 36 mins ago0xd281cf7a8194c59790a17fa5247b7b46b95ce1b0OUT 0x688168a8d54ab5b9ee5c6129d51eac4bfb252c470 BNB0.00052118
0xd7025421eee1a69db8a7c62d1b7914e094486aca9bcbc9f6ab7235c08b6215c9108425512021-07-23 12:31:2212 days 36 mins ago0xd281cf7a8194c59790a17fa5247b7b46b95ce1b0OUT 0x688168a8d54ab5b9ee5c6129d51eac4bfb252c470 BNB0.00023156
0xe149c6b02cbc9125ca9ff95fadc7a0165e3d3e0ecbf817b5115a5657fcfb7ebf108424372021-07-23 12:25:4012 days 42 mins ago0xd281cf7a8194c59790a17fa5247b7b46b95ce1b0OUT 0x688168a8d54ab5b9ee5c6129d51eac4bfb252c470 BNB0.00023282
0x68e54375a4a2afffaf88ca41b7872186cb10f14416b5cf6f7ac4117d4ac20ca8108416352021-07-23 11:45:3412 days 1 hr ago0xd281cf7a8194c59790a17fa5247b7b46b95ce1b0OUT0xbba33901db9ce3b18578799bde301ef02cf5d2631.5 BNB0.00021
0xfe2e2cea6705f664cbb488a67d92eca446fedd7d0c87e7db5e6fb12d0585c6ef108386842021-07-23 9:17:0712 days 3 hrs ago0xd281cf7a8194c59790a17fa5247b7b46b95ce1b0OUT 0xcf377f268f6e2b5ff5c1666d92c3b48827303f540 BNB0.00076897
0xe533de0380f9be58093b3fd7c42bc1d688387ac82ff25d13e137f2a8b5e4dac5105310642021-07-12 15:34:3822 days 21 hrs ago0xd281cf7a8194c59790a17fa5247b7b46b95ce1b0OUT 0xd31000468ef3aa1d096234ea191f3a5e774153600 BNB0.00117602
0xe3cf5c8d6f9a62f93dbdec3f2a5ae64018eb8f7032ded44a43c6e964f87d55e9105310292021-07-12 15:32:5322 days 21 hrs ago0xd281cf7a8194c59790a17fa5247b7b46b95ce1b0OUT 0xd31000468ef3aa1d096234ea191f3a5e774153600 BNB0.00071315
0x91b818ff0e97bb657b53ece2281fe381bc2bef8e55cd5eae6fc06e1ab2ca267f105310192021-07-12 15:32:2322 days 21 hrs ago0xd281cf7a8194c59790a17fa5247b7b46b95ce1b0OUT 0x4a291477c8901672bca0e4d2bf391587276a4a370 BNB0.0003615
0x609862c3350b12a8e8054383fe9718a87a9e3aa47b1c04f5026553e529e44573105310082021-07-12 15:31:5022 days 21 hrs ago0xd281cf7a8194c59790a17fa5247b7b46b95ce1b0OUT 0xd31000468ef3aa1d096234ea191f3a5e774153600 BNB0.00049027
0x37d06ca60147ed7c24f5f7656c475a272a8d41fe251737f5e66df89698238426105309682021-07-12 15:29:5022 days 21 hrs ago0xd281cf7a8194c59790a17fa5247b7b46b95ce1b0OUT 0x618549d304828c77dcb590d02e3641b03e6f41760 BNB0.00036125
0x43a27fc169728bdd8a2b2fae70d9be3fd1586315a8063d68217ad42f4b32a628105290072021-07-12 13:51:4722 days 23 hrs ago0xd281cf7a8194c59790a17fa5247b7b46b95ce1b0OUT 0xd31000468ef3aa1d096234ea191f3a5e774153600 BNB0.00068708
0x0f811319bf01a1eb8f90b18992ae77a9ee30b7d109e8bc598830f8fbf56d8900105289942021-07-12 13:51:0822 days 23 hrs ago0xd281cf7a8194c59790a17fa5247b7b46b95ce1b0OUT 0xd31000468ef3aa1d096234ea191f3a5e774153600 BNB0.00045781
0xfb17d34bbb55a787fed592a66ea03a589a452b5c2cec2feaf93c27cdb137175b105289942021-07-12 13:51:0822 days 23 hrs ago0xd281cf7a8194c59790a17fa5247b7b46b95ce1b0OUT 0xd31000468ef3aa1d096234ea191f3a5e774153600 BNB0.00045793
0x419283c10d949beaa401f000a7abef7641fb93b230f5b19f30a5a3ca13d0889b105289942021-07-12 13:51:0822 days 23 hrs ago0xd281cf7a8194c59790a17fa5247b7b46b95ce1b0OUT 0xd31000468ef3aa1d096234ea191f3a5e774153600 BNB0.00197329
0xa2d443df35b82b04a06aebcafcdccb58bc565bed260073e2d41a5625a571c5aa105289792021-07-12 13:50:2322 days 23 hrs ago0xd281cf7a8194c59790a17fa5247b7b46b95ce1b0OUT 0xd31000468ef3aa1d096234ea191f3a5e774153600 BNB0.00220167
0x9127581459de64913584fcd51c77ab8eaeb9ba031f997d00182c684640b5f8f2105289502021-07-12 13:48:5622 days 23 hrs ago0xd281cf7a8194c59790a17fa5247b7b46b95ce1b0OUT 0xd31000468ef3aa1d096234ea191f3a5e774153600 BNB0.00086979
0x1a152d963ee1074c8a7583307fdfc8958babcc7630ac8e9fed626120e70eb785105289362021-07-12 13:48:1422 days 23 hrs ago0xd281cf7a8194c59790a17fa5247b7b46b95ce1b0OUT 0xd31000468ef3aa1d096234ea191f3a5e774153600 BNB0.0010927
0x7493e028d2c2af290d682783e3e8508f81af76aa1fcdb1b4eaaef7eead216ce7105282002021-07-12 13:11:2622 days 23 hrs ago0xd281cf7a8194c59790a17fa5247b7b46b95ce1b0OUT 0xd31000468ef3aa1d096234ea191f3a5e774153600 BNB0.0013103
0x4578f54a405d4c5b1c051984d77446f3b86911c63bfcb5803685fcda057eb8ec105281652021-07-12 13:09:4122 days 23 hrs ago0xd281cf7a8194c59790a17fa5247b7b46b95ce1b0OUT 0x4a291477c8901672bca0e4d2bf391587276a4a370 BNB0.00025194
0x7a0533be205f09cdf70a283618b235bfbcf8adbe6e154c17732086f14755c0dd105281522021-07-12 13:09:0222 days 23 hrs ago0xd281cf7a8194c59790a17fa5247b7b46b95ce1b0OUT 0x4a291477c8901672bca0e4d2bf391587276a4a370 BNB0.00029394
0xdd2dc1c5125a37029ca2af4bcebdd83e2e7c7b1cc4f12bd9fe3ac4d5a8b881c5105247532021-07-12 10:19:0523 days 2 hrs ago0xd281cf7a8194c59790a17fa5247b7b46b95ce1b0OUT 0xd31000468ef3aa1d096234ea191f3a5e774153600 BNB0.00140327
0x45f5839c568b48729e218f4b9a073027730721a28679eb4286ec1db38dda0b6d105247492021-07-12 10:18:5323 days 2 hrs ago0xd281cf7a8194c59790a17fa5247b7b46b95ce1b0OUT 0xd31000468ef3aa1d096234ea191f3a5e774153600 BNB0.00134649
0x496b87277c14256da1d24b9fb74c55797cd5d546f1008ba4b2795d852abb42e8105247422021-07-12 10:18:3223 days 2 hrs ago0xd281cf7a8194c59790a17fa5247b7b46b95ce1b0OUT 0xd31000468ef3aa1d096234ea191f3a5e774153600 BNB0.0014022
0x02f5c830f8dfaf25d7ce4707f49293c7c76e83185d0c8a6f59619ea4e8fe980f105247402021-07-12 10:18:2623 days 2 hrs ago0xd281cf7a8194c59790a17fa5247b7b46b95ce1b0OUT 0xd31000468ef3aa1d096234ea191f3a5e774153600 BNB0.0014022
0xad312b6122491de58eb7cfbdd588604c41f598dcebebe3214ec75f610e9ee637105247402021-07-12 10:18:2623 days 2 hrs ago0xd281cf7a8194c59790a17fa5247b7b46b95ce1b0OUT 0xd31000468ef3aa1d096234ea191f3a5e774153600 BNB0.00134542
[ Download CSV Export 
Latest 4 internal transactions
Parent Txn Hash Block From To Value
0xfb4461f6a0cab2a9e701b77d54f5f4e6698fa2af945fe67bc2e997f480f7f0db85732322021-05-05 10:24:0291 days 2 hrs ago 0x354bc1cfe9959b96bed409859a726263c6c56c810xd281cf7a8194c59790a17fa5247b7b46b95ce1b00.16139253045049592 BNB
0xa652c30892b6bbd8ecee6904f5302d1e59cc377d99721ea823a240f5846f2f4985464672021-05-04 12:05:4792 days 1 hr ago 0xe9ee87fb3c4b6e4bf6b40f5a0f9aed5658ba2e4a0xd281cf7a8194c59790a17fa5247b7b46b95ce1b01 wei
0xec862a1d6e24d334905fe0d2f920343dc0f080c637c0297898a74a2995539f7471421862021-03-16 16:48:28140 days 20 hrs ago 0xe2e89fca3dfa37baa14a50ab70311485c2a2e4a90xd281cf7a8194c59790a17fa5247b7b46b95ce1b00.090702432370993407 BNB
0xbbf6babbc4d3ec15d3f78a44b7e6f5e392e5c15eb21f12de9b35bb905d8064c871420802021-03-16 16:43:10140 days 20 hrs ago 0xe2e89fca3dfa37baa14a50ab70311485c2a2e4a90xd281cf7a8194c59790a17fa5247b7b46b95ce1b00.063982474779439246 BNB
[ Download CSV Export 
Loading

Contract Name:
0 BNB

Compiler Version
0

Optimization Enabled:
0 BNB

Other Settings:
-NA-
Block Transaction Gas Used Reward
Age Block Fee Address BC Fee Address Voting Power Jailed Incoming
Block Uncle Number Difficulty Gas Used Reward
Loading